Regional Weather Roundup
Issued by NWS

Home | Current Version | Previous Version | Text Only | Print | Product List | Glossary On
Versions: 1 2 3 4 5 6 7 8 9 10 11 12 13 14 15 16 17 18 19 20 21 22 23 24 25 26 27 28 29 30 31 32 33 34 35 36 37 38 39 40 41 42 43 44 45 46 47 48 49 50
000
ASUS43 KMKX 280524
RWRWI

WISCONSIN REGIONAL WEATHER ROUNDUP
NATIONAL WEATHER SERVICE MILWAUKEE/SULLIVAN WI
1200 AM CDT THU MAY 28 2015

NOTE: "FAIR" INDICATES FEW OR NO CLOUDS BELOW 12,000 FEET WITH NO
SIGNIFICANT WEATHER AND/OR OBSTRUCTIONS TO VISIBILITY.

WIZ001-002-006>008-014>016-023>028-280600-
NORTHWEST WISCONSIN

CITY           SKY/WX    TMP DP  RH WIND       PRES   REMARKS
SUPERIOR ARPT  CLEAR     53  46  77 E14       30.06R
ASHLAND        CLEAR     54  54 100 N10       30.05R
HAYWARD        CLEAR     55  52  89 CALM      30.05R
SIREN          CLEAR     56  53  90 CALM      30.04S
CUMBERLAND     CLEAR     59  55  88 CALM      30.06R
RICE LAKE      CLEAR     61  54  77 CALM      30.07R
CHETEK         CLEAR     58  56  91 E3        30.06R
LADYSMITH      CLEAR     57  56  96 CALM      30.08R FOG
EAU CLAIRE     CLEAR     62  54  74 CALM      30.05R
MENOMONIE      CLEAR     64  60  87 E3        30.05S
NEW RICHMOND   CLEAR     61  56  85 CALM      30.04S
OSCEOLA        CLEAR     57  57 100 CALM      30.06S
$$

WIZ003>005-009-010-017-018-280600-
NORTH CENTRAL WISCONSIN

CITY           SKY/WX    TMP DP  RH WIND       PRES   REMARKS
MANITOWISH WTR FOG       51  51 100 CALM      30.06R VSB 1/2
ARBOR VITAE    CLEAR     57  55  95 CALM      30.06R
WOODRUFF       CLEAR     57  55  95 CALM      30.06R
RHINELANDER    CLEAR     54  53  97 CALM      30.07R
EAGLE RIVER    MOCLDY    51  51 100 CALM      30.07R FOG
LAND O LAKES   CLEAR     50  49  98 CALM      30.08R
PHILLIPS       MOCLDY    55  55 100 CALM      30.06R FOG
TOMAHAWK       PTCLDY    54  52  95 CALM      30.08R
MEDFORD        PTCLDY    56  55  94 SE3       30.08R
MERRILL        FOG       53  53 100 CALM      30.09R VSB 1
$$

WIZ029-030-035-036-043>047-280600-
CENTRAL WISCONSIN

CITY           SKY/WX    TMP DP  RH WIND       PRES   REMARKS
WAUSAU         MOCLDY    57  56  96 S3        30.06R
MOSINEE        MOCLDY    55  55 100 CALM      30.10R
MARSHFIELD     CLEAR     59  55  87 CALM      30.08R
STEVENS POINT  FOG       55  55  99 CALM      30.08S VSB 1
WAUPACA        MOCLDY    61  59  95 CALM      30.08S
WAUTOMA        MOCLDY    62  60  93 CALM      30.08F
WISC RAPIDS    PTCLDY    58  54  86 S5        30.09R
CAMP DOUGLAS   CLEAR     60  60 100 E3        30.08R
$$

WIZ011>013-019>022-031-037>040-048>050-280600-
NORTHEAST WISCONSIN

CITY           SKY/WX    TMP DP  RH WIND       PRES   REMARKS
ANTIGO         PTCLDY    52  52 100 CALM      30.09R
SHAWANO        PTCLDY    58  56  94 CALM      30.06S FOG
OCONTO         PTCLDY    55  55 100 CALM      30.05S
STURGEON BAY   MOCLDY    55  54  94 CALM      30.08F
GREEN BAY      MOCLDY    62  55  77 CALM      30.07R
MANITOWOC      MOCLDY    53  50  89 CALM      30.08R
APPLETON       CLOUDY    59  54  82 W9        30.08S
CLINTONVILLE   MOCLDY    59  55  88 SW3       30.06S
OSHKOSH        LGT RAIN  63  56  78 NW6       30.08R
$$

WIZ032>034-041-042-053>061-280600-
SOUTHWEST WISCONSIN

CITY           SKY/WX    TMP DP  RH WIND       PRES   REMARKS
LA CROSSE      CLEAR     67  61  81 SE5       30.07R
SPARTA         CLEAR     56  55  96 CALM      30.09R
VIROQUA        CLEAR     66  58  76 S7        30.10R
BOSCOBEL       CLEAR     59  58  96 CALM      30.10R FOG
PRAIRIE DU CHI CLEAR     61  58  89 CALM      30.09R
PLATTEVILLE    CLEAR     66  60  81 S7        30.12R
$$

WIZ056-057-062-063-064-067-068-280600-
SOUTH CENTRAL WISCONSIN

CITY           SKY/WX    TMP DP  RH WIND       PRES   REMARKS
REEDSBURG      CLEAR     63  59  86 S5        30.09R
BARABOO/DELLS  CLEAR     61  56  85 S5        30.10R
LONE ROCK      CLEAR     60  58  92 E5        30.11R
MINERAL POINT  CLEAR     64  59  82 S6        30.12R
MADISON        CLEAR     66  58  75 S3        30.11R
MIDDLETON      CLEAR     64  60  85 S3        30.11R
WATERTOWN      CLEAR    N/A N/A N/A CALM      30.11R
MONROE         CLEAR     63  57  82 S8        30.13R
JANESVILLE     CLEAR     63  57  82 CALM      30.12R
$$

WIZ051-052-058>065-066-070>072-280600-
SOUTHEAST WISCONSIN

CITY           SKY/WX    TMP DP  RH WIND       PRES   REMARKS
MILWAUKEE      PTCLDY    59  54  83 VRB3      30.11R
WAUKESHA       CLEAR     61  54  77 SW6       30.13R
MILWAUKEE/TIMM PTCLDY    61  52  72 SW3       30.11S
RACINE         CLEAR     60  53  77 S6        30.13R
BURLINGTON     CLEAR     56  55  97 SW6       30.13R
KENOSHA        CLEAR     59  56  89 S5        30.12R
FOND DU LAC    MOCLDY    68  58  70 W5        30.10R
SHEBOYGAN      MOCLDY    60  57  89 S6        30.08S
WEST BEND      MOCLDY    61  55  82 SW3       30.10S
JUNEAU         PTCLDY    61  57  85 S5        30.11R
$$

LSZ147-162-280600-
LAKE SUPERIOR

STATION/POSITION TIME  TEMP    WIND        PRES    WAVE
                       AIR SEA DIR/SP/G            HT/PER
                 (UTC) (F)     (DEG/KT/KT) (MB)    (FT/S)
W MID LAKE BUOY  0450   43 37   60/ 10/ 14   N/A     1
DEVILS ISLAND    0500   52      90/ 15/ 16   N/A
PORT WING        0400   45      20/ 11/ 15   N/A
SAXON HARBOR     0400   56      CALM  /  2   N/A
$$

LMZ867-665-643>646-280600-
LAKE MICHIGAN

STATION/POSITION TIME  TEMP    WIND        PRES    WAVE
                       AIR SEA DIR/SP/G            HT/PER
                 (UTC) (F)     (DEG/KT/KT) (MB)    (FT/S)
CHAMBERS ISLAND  0400   59     190/  4/  8   N/A
N MID LAKE BUOY  0450   43 36  180/ 12/ 14   N/A     1/ 4
NORTHPORT PIER   0400   60      60/  1/  7   N/A
SISTER BAY       0418   63     230/  8/  8   N/A
ALGOMA LAKESHORE 0408          240/  9/ 11   N/A
KEWAUNEE LAKESHO 0500   56     180/  3/  5   N/A
SHEBOYGAN LAKESH 0500   59     210/  7/  8   N/A
PORT WASHINGTON  0400   53     190/  5/  8   N/A
ATWATER BUOY     0500   54 49  180/  8/ 10   N/A
MILWAUKEE LAKESH 0500   55     140/  2/  4   N/A
S MID LAKE BUOY  0450   42 38  180/  8/  8   N/A     0
KENOSHA   LAKESH 0500   62     200/  7/  8   N/A
$$

TC  - TEMPERATURE IN CELSIUS
VSB - VISIBILITY IN STATUTE MILES
WCI - WIND CHILL INDEX
HX  - HEAT INDEX




USA.gov is the U.S. government's official web portal to all federal, state and local government web resources and services.